SPACEMOBILE-009

Last updated on Fri Sep 11 2026 00:02:08 GMT+0000 (Coordinated Universal Time)

1 69590U 26139B 26253.23624731 .00001526 00000+0 10269-3 0 9990 2 69590 52.9935 236.4535 0003303 202.9540 157.1304 15.12854589 12858
UTC large
Height (km)
Speed (km/s)
/
Latitude / Longitude
Inclination (degrees)
Orbital Period (minutes)
Azimuth
Elevation
Range (km)
Doppler Factor

Next 0 passes for location: London (51.5072 / 0.1276)

No passes found over London.
SPACEMOBILE-009